User: anonymous   Login
Location: Unspecified
(0.0000°N, 0.0000°E)
Time: 20:11:46
(UTC+00:00)
Language:

TBA - TO BE ASSIGNED - Orbit

View from above orbital plane
View from above orbital plane
View from above satellite
View from above satellite

Ground track
Ground track

The orbit is defined by the following mean orbital elements,

1 67534U          26145.43485244 +.00000000 +00000-0 +51983-3 0 00009
2 67534  97.2872  32.4593 0001412  85.8284 274.3120 15.33458536    03
Epoch (UTC): 25 May 2026 10:26:11
Eccentricity: 0.0001412
inclination: 97.2872°
perigee height: 465 km
apogee height: 466 km
right ascension of ascending node: 32.4593°
argument of perigee: 85.8284°
revolutions per day: 15.33458536
mean anomaly at epoch: 274.3120°

The dashed part of the orbit path shows where the satellite is in the earth's shadow,  

DLR